Voltar ao catálogo

YAOGAN 20B

AtivoMilitarLEO
NORAD 40110·PAYLOAD·🇨🇳 China

Lançado Aug 9, 2014 de Jiuquan Satellite Launch Center

Loading…

Próximas Passagens (próximas 24 horas)

TLE

AtualizadoSource: Space-Track

Época: Sep 14, 2026, 15:02 UTC

1 40110U 14047B   26257.62672624 -.00000074  00000-0  17273-4 0  9995
2 40110  63.3781 149.4039 0397914  15.1907 346.0669 13.45446248594319

Acompanhe YAOGAN 20B em tempo real com AllMySat

Download on the App Store